User: anonymous   Login
Location: NJAA Observatory
(40.6819°N, 74.8979°W)
Time: 10:29:17
(UTC-05:00)
Language:

ALOS - Orbit

View from above orbital plane
View from above orbital plane
View from above satellite
View from above satellite

Ground track
Ground track

The orbit data is extracted from the following two-line orbital elements,

1 28931U 06002A   15029.52872952  .00000823  00000-0  17445-3 0  1706
2 28931 097.9537 084.3585 0001620 130.8389 229.2955 14.61635348480387
Epoch (UTC): 29 January 2015 12:41:22
Eccentricity: 0.0001620
inclination: 97.9537°
perigee height: 687 km
apogee height: 689 km
right ascension of ascending node: 84.3585°
argument of perigee: 130.8389°
revolutions per day: 14.61635348
mean anomaly at epoch: 229.2955°
orbit number at epoch: 48038

The dashed part of the orbit path shows where the satellite is in the earth's shadow,  

DLR